Location: Firnhaberau
(48.4049°N, 10.8963°E)
Time: 07:13:39
(UTC+00:00)

Tiangong - Pass Details

Date: 22 June 2021
Orbit: 374 x 386 km, 41.5° (Epoch: 28 July)

Event Time Altitude Azimuth Distance (km) Brightness Sun altitude
Exits shadow 02:20:50 - 203° (SSW) 1,456 3.4 -7.4°
Reaches altitude 10° 02:21:06 10° 199° (SSW) 1,387 3.3 -7.4°
Maximum altitude 02:22:58 15° 162° (SSE) 1,137 3.2 -7.2°
Drops below altitude 10° 02:24:52 10° 125° (SE) 1,395 4.0 -7.0°
Sets 02:27:33 0° 101° (E) 2,254 5.4 -6.6°
